星链-31886 (STARLINK-31886 )

导读 | 星芒AI

STARLINK-31886 是 SpaceX Starlink 卫星互联网项目中的一颗低轨卫星,属于第三代星链卫星(v1.5)。它于2023年发射,运行在约550公里高的近地轨道,旨在为全球用户提供高速互联网服务。该卫星采用先进推进系统和激光通信技术,提高网络稳定性和数据传输效率。Starlink 项目由数千颗卫星组成,致力于实现全球覆盖,特别是在偏远和网络基础设施薄弱地区。STARLINK-31886 的运行有助于增强 Starlink 网络的容量和可靠性。

基本信息
目录编号:
59662
目录名称:
STARLINK-31886
国际标识:
2024-084J
轨道中心:
EARTH
卫星名称:
星链-31886
卫星全名:
星链-31886 (STARLINK-31886 )
卫星状态:
在轨 (已飞行546 天)
发射日期:
2024-05-06 UTC
国别 :
美国 (US)
星等 :
--
轨道信息
数据来源 国际轨道数据 AOE轨道数据
星历时间 2025-11-02T08:06:51+0800
1天前
查看轨道信息
2025-11-02T09:00:00+0800
1天前
查看轨道信息
半长轴 6861.253km 6861.276km
偏心率 0.0001249 0.0001511
轨道倾角 43.005° 43.003°
近地点辐角 273.509° 278.435°
升交点赤经 43.047° 42.842°
平近点角 86.562° 284.882°
近地点 482.261km 482.104km
远地点 483.975km 484.178km
周期 94.268分钟 94.269分钟
每日圈数 15.275577 15.275502
详细信息
固有亮度:
5
最大亮度:
1.5
卫星平台:
Starlink v2.0 mini
覆盖范围:
全球
运营商:
太空探索技术公司
运营商所在国:
美国
制造商(研发单位):
太空探索技术公司
制造商所在国:
美国
使用方式:
暂无
卫星简介
星链(Starlink)计划是由太空探索技术公司(SpaceX)提出的一个巨型低轨卫星互联网星座项目,计划在2019年至2024年间在太空搭建由约1.2万颗卫星组成的“星链”网络,其中1584颗将部署在地球上空550千米处的近地轨道,并从2020年开始工作。该卫星仍在工作。
2D轨道图
3D轨道图
轨道高度分析图
轨道倾角分析图
轨道综合分析图
查看轨道综合分析图